Ketchikan, AK

9:00 AM AKST on November 13, 2018 (GMT -0900)
Ketchikan International

Weather History for PAKT - November, 2017

Change the Weather History Date:

Saturday, November 18, 2017

  Actual Average Record
Temperature  
Mean Temperature 39 °F -  
Max Temperature 41 °F 43 °F 54 °F (1949)
Min Temperature 37 °F 33 °F 15 °F (1963)
Degree Days  
Heating Degree Days 26    
Moisture  
Dew Point 37 °F    
Average Humidity 94    
Maximum Humidity 100    
Minimum Humidity 86    
Precipitation  
Precipitation 0.14 in - - ()
Sea Level Pressure  
Sea Level Pressure 29.63 in    
Wind  
Wind Speed 5 mph (South)    
Max Wind Speed 9 mph    
Max Gust Speed -    
Visibility 10 miles    
Events Rain    
Averages and records for this station are not official NWS values.
T = Trace of Precipitation, MM = Missing Value Source: NWS Daily Summary

Daily Weather History Graph

Daily Weather History Graph

Search for Another Location

Airport or City:

Astronomy

Nov. 18, 2017 Rise Set
Actual Time 7:27 AM AKST 3:36 PM AKST
Civil Twilight 6:45 AM AKST 4:18 PM AKST
Nautical Twilight 5:59 AM AKST 5:03 PM AKST
Astronomical Twilight 5:16 AM AKST 5:47 PM AKST
Moon 7:17 AM AKST (11/18) 4:23 PM AKST (11/18)
Length of Visible Light 9h 33m
Length of Day
8h 09m
New Moon, 0% of the Moon is Illuminated
Nov 18
New Moon
Nov 26
First Quarter
Dec 3
Full
Dec 9
Last Quarter
Dec 17
New

Hourly Weather History & Observations

Time (AKST) Temp. Windchill Dew Point Humidity Pressure Visibility Wind Dir Wind Speed Gust Speed Precip Events Conditions
12:53 AM 41.0 °F 37.1 °F 37.9 °F 89% 29.66 in 10.0 mi SE 5.8 mph - 0.00 in Rain Light Rain
1:04 AM 39.9 °F 35.8 °F 37.9 °F 93% 29.65 in 10.0 mi SE 5.8 mph - 0.00 in   Overcast
1:22 AM 41.0 °F 35.2 °F 37.0 °F 86% 29.66 in 8.0 mi SSE 9.2 mph - 0.01 in Rain Light Rain
1:53 AM 39.9 °F 35.8 °F 37.0 °F 89% 29.67 in 10.0 mi SE 5.8 mph - 0.01 in   Scattered Clouds
2:04 AM 39.0 °F 34.8 °F 37.0 °F 93% 29.67 in 10.0 mi SSE 5.8 mph - N/A   Mostly Cloudy
2:13 AM 39.0 °F 34.0 °F 36.0 °F 89% 29.67 in 10.0 mi SSE 6.9 mph - N/A   Mostly Cloudy
2:53 AM 39.0 °F 35.7 °F 37.9 °F 96% 29.69 in 6.0 mi SSE 4.6 mph - 0.01 in Rain Light Rain
3:34 AM 39.0 °F 34.8 °F 37.0 °F 93% 29.68 in 10.0 mi SSE 5.8 mph - 0.03 in   Scattered Clouds
3:53 AM 39.9 °F 36.7 °F 37.9 °F 93% 29.69 in 10.0 mi South 4.6 mph - 0.03 in Rain Light Rain
4:40 AM 39.0 °F 33.4 °F 37.0 °F 93% 29.68 in 10.0 mi South 8.1 mph - 0.00 in   Mostly Cloudy
4:53 AM 39.0 °F 34.0 °F 37.0 °F 93% 29.69 in 10.0 mi SSE 6.9 mph - 0.00 in   Mostly Cloudy
5:07 AM 39.0 °F 34.0 °F 37.0 °F 93% 29.69 in 10.0 mi SSE 6.9 mph - N/A   Overcast
5:53 AM 39.0 °F 34.8 °F 37.0 °F 93% 29.70 in 10.0 mi South 5.8 mph - N/A   Overcast
5:59 AM 37.4 °F 32.1 °F 37.4 °F 100% 29.69 in 10.0 mi South 6.9 mph - N/A   Overcast
6:53 AM 39.2 °F 34.2 °F 37.4 °F 93% 29.70 in 10.0 mi SSE 6.9 mph - N/A Rain Light Rain
7:53 AM 37.4 °F 33.8 °F 37.4 °F 100% 29.70 in 10.0 mi SSW 4.6 mph - N/A   Overcast
8:53 AM 39.2 °F 37.0 °F 37.4 °F 93% 29.70 in 10.0 mi South 3.5 mph - N/A   Overcast
9:53 AM 39.2 °F - 37.4 °F 93% 29.70 in 10.0 mi Calm Calm - N/A   Overcast
10:00 AM 41.0 °F - 37.9 °F 89% 29.69 in 10.0 mi Calm Calm - N/A   Overcast
10:53 AM 39.2 °F 37.0 °F 37.4 °F 93% 29.69 in 10.0 mi SSE 3.5 mph - N/A   Overcast
11:53 AM 41.0 °F - 39.2 °F 93% 29.68 in 10.0 mi Calm Calm - N/A   Overcast
12:53 PM 41.0 °F 37.1 °F 39.2 °F 93% 29.66 in 7.0 mi SSE 5.8 mph - N/A Rain Light Rain
1:53 PM 39.9 °F - 37.9 °F 93% 29.64 in 10.0 mi Calm Calm - 0.06 in Rain Light Rain
2:53 PM 39.0 °F - 37.9 °F 96% 29.62 in 10.0 mi Calm Calm - 0.01 in Rain Light Rain
3:53 PM 39.0 °F - 37.0 °F 93% 29.60 in 8.0 mi Calm Calm - 0.00 in Rain Light Rain
4:53 PM 37.9 °F 34.4 °F 37.0 °F 97% 29.57 in 10.0 mi WNW 4.6 mph - 0.02 in Rain Light Rain
5:53 PM 37.9 °F 34.4 °F 36.0 °F 93% 29.55 in 10.0 mi WNW 4.6 mph - 0.00 in   Overcast
6:53 PM 37.0 °F 33.3 °F 36.0 °F 96% 29.54 in 10.0 mi WNW 4.6 mph - 0.00 in   Overcast
7:53 PM 37.0 °F 33.3 °F 36.0 °F 96% 29.53 in 10.0 mi NW 4.6 mph - N/A   Overcast
8:53 PM 37.9 °F 32.1 °F 37.0 °F 97% 29.52 in 10.0 mi NW 8.1 mph - N/A   Overcast
9:16 PM 37.9 °F 34.4 °F 37.0 °F 97% 29.51 in 9.0 mi NW 4.6 mph - 0.00 in Rain Light Rain
9:53 PM 37.9 °F 34.4 °F 37.0 °F 97% 29.51 in 10.0 mi WNW 4.6 mph - 0.00 in   Overcast
10:44 PM 37.9 °F 35.5 °F 37.0 °F 97% 29.50 in 10.0 mi NW 3.5 mph - N/A   Overcast
10:53 PM 37.9 °F 33.5 °F 37.0 °F 97% 29.50 in 10.0 mi WNW 5.8 mph - N/A   Overcast
11:53 PM 37.0 °F 34.5 °F 36.0 °F 96% 29.49 in 10.0 mi NW 3.5 mph - N/A   Overcast